Location: Lafig�re
(44.4503°N, 4.0357°E)
Time: 14:56:51
(UTC+00:00)

Vanguard 2 Rocket - All Passes

Search period start: 25 January 2021 00:00
Search period end: 04 February 2021 00:00
Orbit: 554 x 3325 km, 32.9° (Epoch: 25 January)

Date Brightness Start Highest point End Pass type
(mag) Time Alt. Az. Time Alt. Az. Time Alt. Az.
25 Jan - 12:26:02 10° SSW 12:38:12 24° SSE 12:47:10 10° ESE daylight
25 Jan - 14:39:53 10° SW 14:53:02 38° S 15:01:07 10° ESE daylight
25 Jan - 16:56:41 10° WSW 17:06:46 38° S 17:12:51 10° ESE visible
25 Jan - 19:14:05 10° WSW 19:18:56 18° SSW 19:22:36 10° SSE visible
26 Jan - 11:26:24 10° S 11:37:23 19° SSE 11:46:11 10° ESE daylight
26 Jan - 13:38:16 10° SW 13:52:31 35° SSE 14:01:44 10° ESE daylight
26 Jan - 15:54:42 10° WSW 16:06:54 42° S 16:14:06 10° ESE daylight
26 Jan - 18:12:10 10° WSW 18:19:47 27° SSW 18:24:47 10° SSE visible
27 Jan - 10:28:28 10° SSE 10:36:29 14° SE 10:43:34 10° ESE daylight
27 Jan - 12:37:01 10° SSW 12:51:45 32° SSE 13:01:58 10° ESE daylight
27 Jan - 14:52:36 10° WSW 15:06:41 44° S 15:15:06 10° ESE daylight
27 Jan - 17:10:11 10° WSW 17:20:19 36° SSW 17:26:29 10° SE visible
27 Jan - 19:28:54 10° WSW 19:32:07 13° SW 19:34:49 10° SSW visible
28 Jan - 11:36:25 10° SSW 11:50:46 27° SSE 12:01:39 10° ESE daylight
28 Jan - 13:50:35 10° SW 14:06:08 43° S 14:15:51 10° ESE daylight
28 Jan - 16:07:59 10° WSW 16:20:30 43° S 16:27:51 10° ESE daylight
28 Jan - 18:26:09 10° WSW 18:33:04 22° SSW 18:37:52 10° SSE visible
29 Jan - 10:36:44 10° S 10:49:44 22° SE 11:00:29 10° ESE daylight
29 Jan - 12:48:52 10° SW 13:05:15 40° SSE 13:16:16 10° E daylight
29 Jan - 15:05:40 10° WSW 15:20:18 47° S 15:28:57 10° ESE daylight
29 Jan - 17:23:50 10° W 17:33:43 32° SSW 17:39:54 10° SE visible
30 Jan - 09:38:36 10° S 09:48:43 16° SE 09:57:52 10° ESE daylight
30 Jan - 11:47:39 10° SSW 12:04:08 36° SSE 12:16:14 10° E daylight
30 Jan - 14:03:22 10° WSW 14:19:42 48° S 14:29:47 10° ESE daylight
30 Jan - 16:21:26 10° W 16:34:00 41° SSW 16:41:28 10° SE daylight
30 Jan - 18:40:36 10° WSW 18:46:09 17° SW 18:50:20 10° S visible
31 Jan - 08:45:29 10° SE 08:47:51 10° SE 08:50:10 10° SE daylight
31 Jan - 10:47:10 10° SSW 11:02:55 30° SSE 11:15:37 10° E daylight
31 Jan - 13:01:17 10° SW 13:18:45 47° SSE 13:30:17 10° E daylight
31 Jan - 15:18:56 10° WSW 15:33:50 48° S 15:42:41 10° ESE daylight
31 Jan - 17:37:42 10° W 17:46:55 27° SSW 17:53:00 10° SSE visible
01 Feb - 09:47:39 10° S 10:01:44 24° SE 10:14:09 10° E daylight
01 Feb - 11:59:40 10° SW 12:17:31 43° SSE 12:30:24 10° E daylight
01 Feb - 14:16:26 10° WSW 14:33:14 51° S 14:43:34 10° ESE daylight
01 Feb - 16:35:02 10° W 16:47:20 37° SSW 16:54:51 10° SE daylight
01 Feb - 18:56:32 10° WSW 18:59:01 11° SW 19:01:13 10° SSW visible
02 Feb - 08:49:35 10° S 09:00:41 18° SE 09:11:15 10° ESE daylight
02 Feb - 10:58:39 10° SSW 11:16:07 38° SSE 11:30:02 10° E daylight
02 Feb - 13:14:07 10° WSW 13:32:14 52° S 13:44:08 10° ESE daylight
02 Feb - 15:32:21 10° W 15:47:15 45° SSW 15:56:14 10° SE daylight
02 Feb - 17:51:58 10° W 17:59:54 21° SW 18:05:32 10° S visible
03 Feb - 07:55:17 10° SE 07:59:53 11° SE 08:04:30 10° ESE daylight
03 Feb - 09:58:26 10° SSW 10:14:43 32° SSE 10:29:03 10° E daylight
03 Feb - 12:12:12 10° SW 12:30:54 50° SSE 12:44:20 10° E daylight
03 Feb - 14:29:43 10° WSW 14:46:43 51° S 14:57:15 10° ESE daylight
03 Feb - 16:48:49 10° W 17:00:27 31° SSW 17:07:55 10° SSE daylight
